Location: Unspecified
(0.0000°N, 0.0000°E)
Time: 08:00:26
(UTC+00:00)

A-11 Canister half - All Passes

Search period start: 08 February 2023 00:00
Search period end: 18 February 2023 00:00
Orbit: 1525 x 1683 km, 47.3° (Epoch: 07 February)

Date Brightness Start Highest point End Pass type
(mag) Time Alt. Az. Time Alt. Az. Time Alt. Az.
08 Feb - 00:45:50 10° SSW 00:55:17 57° SE 01:04:25 10° NE night (unlit)
08 Feb - 02:52:14 10° WSW 03:00:05 29° NW 03:07:51 10° N visible
08 Feb - 11:33:42 10° N 11:41:08 25° NE 11:48:43 10° E daylight
08 Feb - 13:36:23 10° NW 13:46:08 71° SW 13:56:13 10° SSE daylight
08 Feb - 15:47:35 10° WSW 15:51:47 13° SW 15:56:02 10° SSW daylight
09 Feb - 00:24:11 10° SSW 00:33:35 53° SE 00:42:39 10° NE night (unlit)
09 Feb - 02:30:15 10° WSW 02:38:23 32° NW 02:46:23 10° N night (unlit)
09 Feb - 11:12:18 10° N 11:19:24 23° NE 11:26:37 10° E daylight
09 Feb - 13:14:38 10° NW 13:24:24 76° SW 13:34:30 10° SE daylight
09 Feb - 15:25:06 10° WSW 15:29:59 14° SW 15:34:55 10° SSW daylight
10 Feb - 00:02:34 10° SSW 00:11:53 50° SE 00:20:52 10° ENE night (unlit)
10 Feb - 02:08:19 10° WSW 02:16:40 34° NW 02:24:53 10° NNE night (unlit)
10 Feb - 10:50:56 10° N 10:57:39 21° NE 11:04:28 10° E daylight
10 Feb - 12:52:55 10° NW 13:02:42 81° SW 13:12:48 10° SE daylight
10 Feb - 15:02:44 10° W 15:08:11 16° SW 15:13:43 10° S daylight
10 Feb - 23:40:57 10° SSW 23:50:10 46° SE 23:59:04 10° ENE visible
11 Feb - 01:46:23 10° WSW 01:54:58 37° NW 02:03:22 10° NNE night (unlit)
11 Feb - 10:29:36 10° N 10:35:54 19° NE 10:42:17 10° E daylight
11 Feb - 12:31:14 10° NW 12:40:59 86° SW 12:51:05 10° SE daylight
11 Feb - 14:40:27 10° W 14:46:23 17° SW 14:52:25 10° S daylight
11 Feb - 23:19:20 10° SSW 23:28:28 43° SE 23:37:15 10° ENE visible
12 Feb - 01:24:29 10° WSW 01:33:16 40° NW 01:41:51 10° NNE night (unlit)
12 Feb - 10:08:19 10° N 10:14:08 17° NE 10:20:03 10° E daylight
12 Feb - 12:09:32 10° NW 12:19:15 89° NE 12:29:20 10° SE daylight
12 Feb - 14:18:15 10° W 14:24:36 19° SW 14:31:05 10° S daylight
12 Feb - 22:57:44 10° SSW 23:06:44 40° SE 23:15:25 10° ENE visible
13 Feb - 01:02:36 10° WSW 01:11:34 43° NW 01:20:18 10° NNE night (unlit)
13 Feb - 09:47:06 10° NNE 09:52:22 16° NE 09:57:43 10° E daylight
13 Feb - 11:47:51 10° NW 11:57:33 84° NE 12:07:36 10° SE daylight
13 Feb - 13:56:06 10° W 14:02:49 20° SW 14:09:42 10° S daylight
13 Feb - 22:36:09 10° SSW 22:45:01 37° SE 22:53:33 10° ENE visible
14 Feb - 00:40:44 10° WSW 00:49:52 47° NW 00:58:45 10° NNE night (unlit)
14 Feb - 09:25:58 10° NNE 09:30:37 14° NE 09:35:18 10° ENE daylight
14 Feb - 11:26:12 10° NW 11:35:50 79° NE 11:45:51 10° SE daylight
14 Feb - 13:34:00 10° W 13:41:03 22° SW 13:48:16 10° S daylight
14 Feb - 22:14:35 10° SSW 22:23:17 35° SE 22:31:41 10° ENE visible
15 Feb - 00:18:53 10° WSW 00:28:10 50° NW 00:37:11 10° NNE night (unlit)
15 Feb - 09:04:57 10° NNE 09:08:50 13° NE 09:12:45 10° ENE daylight
15 Feb - 11:04:32 10° NNW 11:14:08 74° NE 11:24:04 10° SE daylight
15 Feb - 13:11:56 10° W 13:19:16 24° SW 13:26:50 10° S daylight
15 Feb - 21:53:02 10° SSW 22:01:33 32° SE 22:09:47 10° ENE visible
15 Feb - 23:57:02 10° SW 00:06:28 54° NW 00:15:36 10° NNE night (unlit)
16 Feb - 08:44:11 10° NNE 08:47:03 12° NE 08:49:57 10° ENE daylight
16 Feb - 10:42:54 10° NNW 10:52:25 69° NE 11:02:17 10° SE daylight
16 Feb - 12:49:54 10° W 12:57:31 26° SW 13:05:21 10° S daylight
16 Feb - 21:31:29 10° S 21:39:49 30° SE 21:47:51 10° ENE visible
16 Feb - 23:35:13 10° SW 23:44:46 58° NW 23:54:00 10° NNE visible
17 Feb - 08:24:10 10° NE 08:25:16 10° NE 08:26:24 10° NE daylight
17 Feb - 10:21:17 10° NNW 10:30:43 64° NE 10:40:30 10° SE daylight
17 Feb - 12:27:55 10° WNW 12:35:45 28° SW 12:43:51 10° S daylight
17 Feb - 21:09:58 10° S 21:18:04 28° SE 21:25:55 10° ENE visible
17 Feb - 23:13:25 10° SW 23:23:04 62° NW 23:32:24 10° NNE visible
